Starlink 11736

operational
NORAD ID: 64317 Int'l Des: 2025-124 Owner: SPXS Country: US Constellation: starlink
LEOCIRCULAR

Starlink 11736について

説明を読み込み中...

リアルタイム位置

3D地球を読み込み中...

次回通過

高度履歴

Altitude vs Time

uPlot chart will show altitude changes over time

軌道要素

1 64317U 25124A 25353.46392183 .00234275 00000-0 17780-2 0 9997
2 64317 42.9986 153.0889 0001474 261.0383 99.0317 15.70843254 30218
Epoch: Dec 19, 2025 • Age: 27 hours

現在のステータス

高度 367.1 km
速度 7.69 km/s
衛星直下点 -42.50°S, 102°E
打ち上げ日 Jun 10, 2025
運用期間 0.5 years
タイプ internet

技術仕様

分類 Payload
質量 960.00 kg
乾燥質量 910.00 kg
総質量 960.00 kg
長さ 0.30 m
直径 4.10 m
スパン 29.00 m
形状 Box + pan
製造者 SPXS
バスタイプ Starlink V2MD
フェーズステータス In Orbit
所有者/国 SPXS/US

大規模コンステレーション

Loading constellations...